Change the Weather History Date:

Friday, April 5, 2013

  Actual Average Record
Temperature  
Mean Temperature 51 °F -  
Max Temperature 60 °F 71 °F 89 °F (1934)
Min Temperature 42 °F 45 °F 33 °F (1962)
Degree Days  
Heating Degree Days 14    
Growing Degree Days 1 (Base 50)    
Moisture  
Dew Point 43 °F    
Average Humidity 83    
Maximum Humidity 100    
Minimum Humidity 45    
Precipitation  
Precipitation 0.09 in - - ()
Sea Level Pressure  
Sea Level Pressure 29.92 in    
Wind  
Wind Speed 7 mph (North)    
Max Wind Speed 14 mph    
Max Gust Speed 18 mph    
Visibility 9 miles    
Events Rain    
Averages and records for this station are not official NWS values.
T = Trace of Precipitation, MM = Missing Value Source: NWS Daily Summary

Daily Weather History Graph

Daily Weather History Graph

Search for Another Location

Airport or City:

Trip Planner

Search our weather history database for the weather conditions in past years. The results will help you decide how hot, cold, wet, or windy it might be!

Date:

Astronomy

Apr. 05, 2013 Rise Set
Actual Time 6:50 AM EDT 7:34 PM EDT
Civil Twilight 6:24 AM EDT 8:00 PM EDT
Nautical Twilight 5:53 AM EDT 8:31 PM EDT
Astronomical Twilight 5:22 AM EDT 9:02 PM EDT
Moon 3:46 AM EDT (4/5) 3:05 PM EDT (4/5)
Length of Visible Light 13h 36m
Length of Day
12h 44m
Waning Crescent, 24% of the Moon is Illuminated
Apr 5
Waning Crescent
Apr 10
New
Apr 18
First Quarter
Apr 25
Full
May 2
Last Quarter

Hourly Weather History & Observations

Time (EDT) Temp. Windchill Dew Point Humidity Pressure Visibility Wind Dir Wind Speed Gust Speed Precip Events Conditions
12:15 AM 46.4 °F 45.2 °F 46.4 °F 100% 29.86 in 10.0 mi NE 3.5 mph - N/A   Overcast
12:35 AM 46.4 °F 42.4 °F 44.6 °F 93% 29.88 in 7.0 mi NW 8.1 mph - 0.02 in Rain Rain
12:55 AM 44.6 °F 39.7 °F 44.6 °F 100% 29.85 in 5.0 mi North 9.2 mph - 0.07 in Rain Heavy Rain
1:15 AM 44.6 °F 39.2 °F 42.8 °F 93% 29.84 in 10.0 mi North 10.4 mph - 0.01 in   Drizzle
1:35 AM 44.6 °F 38.8 °F 42.8 °F 93% 29.82 in 7.0 mi North 11.5 mph 18.4 mph 0.02 in   Drizzle
1:55 AM 44.6 °F 39.7 °F 42.8 °F 93% 29.83 in 10.0 mi North 9.2 mph - 0.02 in   Overcast
2:15 AM 42.8 °F 35.8 °F 42.8 °F 100% 29.82 in 10.0 mi North 13.8 mph - N/A   Overcast
2:35 AM 42.8 °F 37.5 °F 42.8 °F 100% 29.82 in 7.0 mi NNW 9.2 mph - N/A   Overcast
2:55 AM 42.8 °F 38.0 °F 42.8 °F 100% 29.82 in 5.0 mi North 8.1 mph - N/A   Overcast
3:15 AM 42.8 °F 36.6 °F 42.8 °F 100% 29.81 in 5.0 mi North 11.5 mph - N/A   Overcast
3:35 AM 42.8 °F 37.0 °F 42.8 °F 100% 29.82 in 5.0 mi NNW 10.4 mph - N/A   Overcast
3:55 AM 42.8 °F 38.0 °F 41.0 °F 93% 29.84 in 7.0 mi NNW 8.1 mph - N/A   Overcast
4:15 AM 42.8 °F 38.6 °F 41.0 °F 93% 29.85 in 7.0 mi NNW 6.9 mph - N/A   Overcast
4:35 AM 42.8 °F 39.3 °F 41.0 °F 93% 29.86 in 4.0 mi NW 5.8 mph - N/A   Overcast
4:55 AM 42.8 °F 39.3 °F 41.0 °F 93% 29.86 in 5.0 mi NNW 5.8 mph - N/A   Overcast
5:15 AM 42.8 °F 39.3 °F 42.8 °F 100% 29.87 in 5.0 mi NNW 5.8 mph - N/A   Overcast
5:35 AM 42.8 °F 38.0 °F 42.8 °F 100% 29.87 in 5.0 mi NW 8.1 mph - N/A   Overcast
5:55 AM 42.8 °F 38.6 °F 42.8 °F 100% 29.87 in 7.0 mi NNW 6.9 mph - N/A   Overcast
6:15 AM 44.6 °F 42.2 °F 42.8 °F 93% 29.88 in 10.0 mi NNW 4.6 mph - N/A   Overcast
6:35 AM 44.6 °F 40.2 °F 42.8 °F 93% 29.87 in 10.0 mi North 8.1 mph - N/A   Overcast
6:55 AM 44.6 °F 40.2 °F 44.6 °F 100% 29.88 in 10.0 mi NNW 8.1 mph - N/A   Overcast
7:15 AM 44.6 °F 39.7 °F 44.6 °F 100% 29.90 in 10.0 mi North 9.2 mph - N/A   Overcast
7:35 AM 44.6 °F 40.7 °F 44.6 °F 100% 29.90 in 10.0 mi North 6.9 mph - N/A   Overcast
7:55 AM 44.6 °F 40.2 °F 42.8 °F 93% 29.91 in 10.0 mi North 8.1 mph - N/A   Overcast
8:15 AM 44.6 °F 39.7 °F 42.8 °F 93% 29.91 in 10.0 mi North 9.2 mph 16.1 mph N/A   Overcast
8:35 AM 44.6 °F 40.7 °F 42.8 °F 93% 29.91 in 10.0 mi North 6.9 mph - N/A   Overcast
8:55 AM 44.6 °F 40.7 °F 42.8 °F 93% 29.93 in 10.0 mi North 6.9 mph - N/A   Overcast
9:15 AM 44.6 °F 40.2 °F 42.8 °F 93% 29.94 in 10.0 mi North 8.1 mph - N/A   Overcast
9:35 AM 44.6 °F 39.7 °F 42.8 °F 93% 29.94 in 10.0 mi North 9.2 mph - N/A   Overcast
9:55 AM 44.6 °F 40.2 °F 42.8 °F 93% 29.95 in 10.0 mi North 8.1 mph - N/A   Overcast
10:15 AM 44.6 °F 39.7 °F 42.8 °F 93% 29.97 in 10.0 mi North 9.2 mph - N/A   Overcast
10:35 AM 44.6 °F 39.7 °F 42.8 °F 93% 29.97 in 10.0 mi North 9.2 mph - N/A   Overcast
10:55 AM 46.4 °F 41.5 °F 44.6 °F 93% 29.95 in 10.0 mi North 10.4 mph - N/A   Overcast
11:15 AM 46.4 °F 41.9 °F 44.6 °F 93% 29.95 in 10.0 mi North 9.2 mph - N/A   Overcast
11:35 AM 46.4 °F 42.4 °F 44.6 °F 93% 29.95 in 10.0 mi North 8.1 mph - N/A   Overcast
12:15 PM 48.2 °F - 44.6 °F 87% 29.97 in 10.0 mi North 5.8 mph - N/A   Overcast
12:35 PM 50.0 °F - 44.6 °F 82% 29.96 in 10.0 mi North 6.9 mph - N/A   Overcast
12:55 PM 50.0 °F - 44.6 °F 82% 29.96 in 10.0 mi North 6.9 mph - N/A   Overcast
1:15 PM 50.0 °F - 44.6 °F 82% 29.95 in 10.0 mi North 4.6 mph - N/A   Overcast
1:35 PM 51.8 °F - 44.6 °F 76% 29.95 in 10.0 mi NNE 5.8 mph - N/A   Overcast
1:55 PM 51.8 °F - 44.6 °F 76% 29.95 in 10.0 mi North 4.6 mph - N/A   Overcast
2:15 PM 53.6 °F - 44.6 °F 72% 29.95 in 10.0 mi NNE 5.8 mph - N/A   Mostly Cloudy
2:35 PM 53.6 °F - 44.6 °F 72% 29.94 in 10.0 mi NW 4.6 mph - N/A   Overcast
2:55 PM 53.6 °F - 44.6 °F 72% 29.93 in 10.0 mi North 3.5 mph - N/A   Mostly Cloudy
3:15 PM 55.4 °F - 44.6 °F 67% 29.92 in 10.0 mi North 6.9 mph - N/A   Mostly Cloudy
3:35 PM 55.4 °F - 44.6 °F 67% 29.91 in 10.0 mi North 4.6 mph - N/A   Scattered Clouds
3:55 PM 55.4 °F - 42.8 °F 63% 29.90 in 10.0 mi North 4.6 mph - N/A   Scattered Clouds
4:15 PM 59.0 °F - 42.8 °F 55% 29.90 in 10.0 mi North 3.5 mph - N/A   Scattered Clouds
4:35 PM 59.0 °F - 42.8 °F 55% 29.91 in 10.0 mi NNW 6.9 mph - N/A   Scattered Clouds
4:55 PM 59.0 °F - 42.8 °F 55% 29.91 in 10.0 mi WNW 6.9 mph - N/A   Scattered Clouds
5:15 PM 60.8 °F - 41.0 °F 48% 29.92 in 10.0 mi Calm Calm - N/A   Clear
5:35 PM 59.0 °F - 41.0 °F 51% 29.92 in 10.0 mi WNW 3.5 mph - N/A   Clear
5:55 PM 60.8 °F - 39.2 °F 45% 29.93 in 10.0 mi NNW 3.5 mph - N/A   Clear
6:15 PM 59.0 °F - 39.2 °F 48% 29.94 in 10.0 mi North 4.6 mph - N/A   Clear
6:35 PM 59.0 °F - 37.4 °F 45% 29.94 in 10.0 mi NNW 4.6 mph - N/A   Clear
6:55 PM 59.0 °F - 39.2 °F 48% 29.94 in 10.0 mi North 4.6 mph - N/A   Clear
7:15 PM 55.4 °F - 41.0 °F 58% 29.95 in 10.0 mi Calm Calm - N/A   Clear
7:35 PM 55.4 °F - 39.2 °F 54% 29.95 in 10.0 mi Calm Calm - N/A   Clear
7:55 PM 53.6 °F - 41.0 °F 62% 29.96 in 10.0 mi Calm Calm - N/A   Clear
8:15 PM 51.8 °F - 42.8 °F 71% 29.97 in 10.0 mi Calm Calm - N/A   Clear
8:35 PM 50.0 °F - 42.8 °F 76% 29.98 in 10.0 mi Calm Calm - N/A   Clear
8:55 PM 46.4 °F - 42.8 °F 87% 29.99 in 10.0 mi Calm Calm - N/A   Clear
9:15 PM 46.4 °F - 42.8 °F 87% 30.00 in 10.0 mi Calm Calm - N/A   Clear
9:35 PM 46.4 °F - 42.8 °F 87% 30.01 in 10.0 mi Calm Calm - N/A   Clear
9:55 PM 46.4 °F - 42.8 °F 87% 30.02 in 10.0 mi Calm Calm - N/A   Clear
10:15 PM 44.6 °F - 42.8 °F 93% 30.02 in 10.0 mi Calm Calm - N/A   Clear
10:35 PM 42.8 °F - 42.8 °F 100% 30.02 in 10.0 mi Calm Calm - N/A   Clear
10:55 PM 44.6 °F - 42.8 °F 93% 30.02 in 10.0 mi Calm Calm - N/A   Clear
11:15 PM 42.8 °F - 42.8 °F 100% 30.02 in 10.0 mi Calm Calm - N/A   Clear
11:55 PM 42.8 °F - 41.0 °F 93% 30.03 in 5.0 mi Calm Calm - N/A   Clear